Location: Litvinovka
(48.6667°N, 34.3500°E)
Time: 02:59:03
(UTC+00:00)

USA 234 - Pass Details

Date: 18 September 2020
Orbit: 1102 x 1106 km, 123.0° (Epoch: 16 October)

Event Time Altitude Azimuth Distance (km) Brightness Sun altitude
Rises 16:46:25 0° 58° (ENE) 3,927 5.7 -10.3°
Reaches altitude 10° 16:49:18 10° 70° (ENE) 2,966 5.0 -10.8°
Maximum altitude 16:54:51 29° 128° (SE) 1,905 4.0 -11.6°
Drops below altitude 10° 17:00:22 10° 186° (S) 2,956 5.4 -12.5°
Sets 17:03:14 0° 197° (SSW) 3,910 6.2 -13.0°
